Melfa, VA

4:21 AM EDT on September 20, 2019 (GMT -0400)
Accomack County

Weather History for KMFV - August, 2019

Change the Weather History Date:

Monday, August 19, 2019

  Actual Average (KWAL) Record (KWAL)
Temperature  
Mean Temperature 82 °F -  
Max Temperature 93 °F 82 °F 95 °F (2002)
Min Temperature 72 °F 66 °F 60 °F (1998)
Cooling Degree Days 18    
Growing Degree Days 32 (Base 50)    
Moisture  
Dew Point 76 °F    
Average Humidity 82    
Maximum Humidity 99    
Minimum Humidity 59    
Precipitation  
Precipitation 0.00 in - - ()
Sea Level Pressure  
Sea Level Pressure 30.01 in    
Wind  
Wind Speed 4 mph ()    
Max Wind Speed 13 mph    
Max Gust Speed 16 mph    
Visibility 9.3 miles    
Events Thunderstorm    
Averages and records for this station are not official NWS values.
T = Trace of Precipitation, MM = Missing Value Source: Averaged Metar Reports

Daily Weather History Graph

Daily Weather History Graph

Search for Another Location

Airport or City:

Astronomy

Aug. 19, 2019 Rise Set
Actual Time 6:21 AM EDT 7:50 PM EDT
Civil Twilight 5:54 AM EDT 8:18 PM EDT
Nautical Twilight 5:21 AM EDT 8:51 PM EDT
Astronomical Twilight 4:46 AM EDT 9:26 PM EDT
Moon 10:15 PM EDT (8/19) 9:57 AM EDT (8/19)
Length of Visible Light 14h 23m
Length of Day
13h 28m
Waning Gibbous, 85% of the Moon is Illuminated
Aug 19
Waning Gibbous
Aug 23
Last Quarter
Aug 30
New
Sep 5
First Quarter
Sep 14
Full

Hourly Weather History & Observations

Time (EDT) Temp. Heat Index Dew Point Humidity Pressure Visibility Wind Dir Wind Speed Gust Speed Precip Events Conditions
12:15 AM 74.3 °F - 73.8 °F 98% 30.00 in 10.0 mi SSE 5.8 mph - N/A   Clear
12:35 AM 74.7 °F - 73.9 °F 98% 29.99 in 10.0 mi South 4.6 mph - N/A   Clear
12:55 AM 74.8 °F - 73.9 °F 97% 30.00 in 10.0 mi Calm Calm - N/A   Clear
1:15 AM 73.6 °F - 72.9 °F 98% 30.00 in 10.0 mi Calm Calm - N/A   Clear
1:35 AM 73.9 °F - 73.4 °F 98% 29.99 in 10.0 mi South 4.6 mph - N/A   Clear
1:55 AM 74.3 °F - 73.6 °F 98% 29.99 in 10.0 mi South 3.5 mph - N/A   Clear
2:15 AM 74.3 °F - 73.6 °F 98% 29.99 in 10.0 mi Calm Calm - N/A   Clear
2:35 AM 74.3 °F - 73.8 °F 98% 29.99 in 10.0 mi Calm Calm - N/A   Clear
2:55 AM 73.9 °F - 73.4 °F 98% 29.99 in 1.2 mi Calm Calm - N/A   Mist
3:15 AM 72.5 °F - 72.1 °F 99% 29.99 in 7.0 mi Calm Calm - N/A   Clear
3:35 AM 72.1 °F - 71.8 °F 99% 29.99 in 5.0 mi South 3.5 mph - N/A   Clear
3:55 AM 72.3 °F - 71.8 °F 98% 29.99 in 10.0 mi Calm Calm - N/A   Clear
4:15 AM 72.5 °F - 72.1 °F 99% 29.99 in 1.8 mi Calm Calm - N/A   Mist
4:35 AM 72.9 °F - 72.5 °F 99% 30.00 in 10.0 mi South 3.5 mph - N/A   Clear
4:55 AM 72.5 °F - 72.1 °F 99% 30.00 in 10.0 mi South 3.5 mph - N/A   Clear
5:15 AM 72.9 °F - 72.5 °F 99% 29.99 in 10.0 mi South 4.6 mph - N/A   Clear
5:35 AM 72.9 °F - 72.5 °F 99% 30.00 in 7.0 mi South 4.6 mph - N/A   Clear
5:55 AM 73.8 °F - 73.4 °F 99% 30.00 in 7.0 mi Calm Calm - N/A   Clear
6:15 AM 72.3 °F - 72.0 °F 99% 30.00 in 1.5 mi Calm Calm - N/A   Mist
6:35 AM 73.9 °F - 73.6 °F 99% 30.01 in 4.0 mi Calm Calm - N/A   Scattered Clouds
6:55 AM 72.7 °F - 72.3 °F 99% 30.02 in 5.0 mi Calm Calm - N/A   Scattered Clouds
7:15 AM 75.0 °F - 74.7 °F 99% 30.02 in 10.0 mi Calm Calm - N/A   Mostly Cloudy
7:35 AM 76.3 °F - 75.6 °F 98% 30.02 in 10.0 mi South 3.5 mph - N/A   Scattered Clouds
7:55 AM 78.1 °F - 76.8 °F 96% 30.02 in 10.0 mi South 3.5 mph - N/A   Scattered Clouds
8:15 AM 79.9 °F - 77.4 °F 92% 30.03 in 10.0 mi Calm Calm - N/A   Scattered Clouds
8:35 AM 81.3 °F 89.2 °F 77.9 °F 89% 30.03 in 10.0 mi South 4.6 mph - N/A   Clear
8:55 AM 83.3 °F 93.8 °F 78.4 °F 85% 30.03 in 10.0 mi SSW 3.5 mph - N/A   Clear
9:15 AM 84.2 °F 95.3 °F 78.1 °F 82% 30.03 in 10.0 mi SSW 4.6 mph - N/A   Clear
9:35 AM 85.8 °F 97.8 °F 77.9 °F 77% 30.02 in 10.0 mi SW 4.6 mph - N/A   Clear
9:55 AM 86.9 °F 99.3 °F 77.5 °F 74% 30.02 in 10.0 mi Calm Calm - N/A   Clear
10:15 AM 88.2 °F 101.8 °F 78.1 °F 72% 30.02 in 10.0 mi Calm Calm - N/A   Clear
10:35 AM 89.6 °F 104.7 °F 78.4 °F 70% 30.03 in 10.0 mi WSW 5.8 mph - N/A   Clear
10:55 AM 90.7 °F 105.9 °F 78.3 °F 67% 30.03 in 10.0 mi SW 5.8 mph - N/A   Clear
11:15 AM 91.6 °F 106.3 °F 78.1 °F 64% 30.03 in 10.0 mi Calm Calm - N/A   Clear
11:35 AM 92.1 °F 106.4 °F 77.4 °F 62% 30.02 in 10.0 mi SSW 6.9 mph - N/A   Clear
11:55 AM 92.5 °F 105.3 °F 76.5 °F 59% 30.02 in 10.0 mi SW 5.8 mph - N/A   Clear
12:15 PM 92.1 °F 108.6 °F 79.0 °F 65% 30.02 in 10.0 mi South 4.6 mph - N/A   Scattered Clouds
12:35 PM 92.3 °F 109.9 °F 79.3 °F 66% 30.02 in 10.0 mi SE 8.1 mph - N/A   Mostly Cloudy
12:55 PM 92.5 °F 109.7 °F 79.2 °F 65% 30.02 in 10.0 mi SSE 8.1 mph - N/A   Scattered Clouds
1:15 PM 92.5 °F 108.2 °F 78.1 °F 63% 30.02 in 10.0 mi SSE 6.9 mph - N/A   Clear
1:35 PM 93.4 °F 108.4 °F 77.5 °F 60% 30.01 in 10.0 mi South 6.9 mph - N/A   Clear
2:15 PM 91.8 °F 105.4 °F 77.0 °F 62% 30.01 in 10.0 mi South 6.9 mph - N/A   Clear
2:35 PM 91.9 °F 105.2 °F 76.8 °F 61% 30.01 in 10.0 mi South 8.1 mph - N/A   Scattered Clouds
2:55 PM 92.3 °F 106.2 °F 77.0 °F 61% 30.00 in 10.0 mi SSE 12.7 mph - N/A   Scattered Clouds
3:15 PM 91.6 °F 104.3 °F 76.3 °F 61% 30.00 in 10.0 mi South 9.2 mph 16.1 mph N/A   Clear
3:35 PM 91.6 °F 104.3 °F 76.3 °F 61% 30.00 in 10.0 mi South 10.4 mph 16.1 mph N/A   Clear
3:55 PM 92.1 °F 106.4 °F 77.2 °F 62% 29.99 in 10.0 mi South 9.2 mph - N/A   Clear
4:35 PM 91.2 °F 104.0 °F 76.5 °F 62% 29.99 in 10.0 mi SSE 11.5 mph - N/A   Clear
4:55 PM 90.5 °F 101.5 °F 75.2 °F 61% 29.99 in 10.0 mi South 11.5 mph - N/A   Clear
5:15 PM 89.8 °F 99.7 °F 74.7 °F 61% 29.98 in 10.0 mi SSE 11.5 mph 16.1 mph N/A   Clear
5:35 PM 89.8 °F 99.2 °F 74.3 °F 60% 29.98 in 10.0 mi South 10.4 mph 16.1 mph N/A Thunderstorm Clear
5:55 PM 89.1 °F 99.6 °F 75.4 °F 64% 29.98 in 10.0 mi South 10.4 mph - N/A   Clear
6:15 PM 88.0 °F 98.0 °F 75.4 °F 66% 29.98 in 10.0 mi South 10.4 mph 16.1 mph N/A   Clear
6:35 PM 86.9 °F 96.4 °F 75.0 °F 68% 29.98 in 10.0 mi South 8.1 mph - N/A   Clear
6:55 PM 85.3 °F 94.2 °F 75.4 °F 72% 29.99 in 10.0 mi South 8.1 mph - N/A   Clear
7:15 PM 84.4 °F 93.1 °F 75.6 °F 75% 30.00 in 10.0 mi South 5.8 mph - N/A   Clear
7:35 PM 83.3 °F 91.1 °F 75.4 °F 77% 30.00 in 10.0 mi South 5.8 mph - N/A   Clear
7:55 PM 82.8 °F 90.4 °F 75.7 °F 79% 30.00 in 10.0 mi South 5.8 mph - N/A   Clear
8:15 PM 82.6 °F 89.7 °F 75.2 °F 78% 30.01 in 10.0 mi South 6.9 mph - N/A   Clear
8:35 PM 82.6 °F 90.5 °F 76.3 °F 81% 30.02 in 10.0 mi South 6.9 mph - N/A   Clear
8:55 PM 82.4 °F 91.2 °F 77.5 °F 85% 30.02 in 10.0 mi South 8.1 mph - N/A   Clear
9:15 PM 82.4 °F 91.8 °F 78.1 °F 87% 30.03 in 10.0 mi South 9.2 mph - N/A   Clear
9:35 PM 82.4 °F 91.8 °F 78.1 °F 87% 30.03 in 10.0 mi South 6.9 mph - N/A   Clear
9:55 PM 82.4 °F 91.5 °F 77.9 °F 86% 30.03 in 10.0 mi South 6.9 mph - N/A   Clear
10:15 PM 82.6 °F 92.0 °F 77.9 °F 86% 30.03 in 10.0 mi South 8.1 mph - N/A   Clear
10:35 PM 82.6 °F 92.3 °F 78.3 °F 87% 30.03 in 10.0 mi South 5.8 mph - N/A   Clear
10:55 PM 82.4 °F 92.1 °F 78.6 °F 88% 30.03 in 10.0 mi South 5.8 mph - N/A   Clear
11:15 PM 82.4 °F 92.4 °F 78.8 °F 89% 30.02 in 10.0 mi SSW 6.9 mph - N/A   Clear
11:35 PM 82.6 °F 92.3 °F 78.3 °F 87% 30.03 in 10.0 mi SSW 8.1 mph - N/A   Clear
11:55 PM 82.4 °F 91.2 °F 77.5 °F 85% 30.03 in 10.0 mi SSW 5.8 mph - N/A   Clear